Regional Weather Roundup
Issued by NWS Green Bay, WI

Home | Current Version | Previous Version | Text Only | Print | Product List | Glossary On
Versions: 1 2 3 4 5 6 7 8 9 10 11 12 13 14 15 16 17 18 19 20 21 22 23 24 25 26 27 28 29 30 31 32 33 34 35 36 37 38 39 40 41 42 43 44 45 46 47 48 49 50
000
ASUS43 KGRB 272300
RWRGRB

NORTH-CENTRAL AND NORTHEAST WISCONSIN REGIONAL WEATHER ROUNDUP
NATIONAL WEATHER SERVICE GREEN BAY WI
600 PM CDT SAT MAY 27 2017

WIZ005-009-010>012-018-019-280000-
NORTH CENTRAL WISCONSIN

CITY           SKY/WX    TMP DP  RH WIND       PRES   REMARKS
IRONWOOD       CLOUDY    69  44  40 NW8       29.82F
MANITOWISH WTR NOT AVBL
ARBOR VITAE    NOT AVBL
EAGLE RIVER    NOT AVBL
LAND O LAKES   NOT AVBL
RHINELANDER    MOSUNNY   70  48  45 W7        29.83F
PHILLIPS       MOSUNNY   67  47  48 W3        29.82F
ANTIGO         NOT AVBL
TOMAHAWK       NOT AVBL
MERRILL        CLOUDY    68  49  51 W6        29.84S
$$

WIZ013-073-280000-
NORTHEAST WISCONSIN

CITY           SKY/WX    TMP DP  RH WIND       PRES   REMARKS
IRON MOUNTAIN  CLOUDY    77  44  30 W8        29.76F
MARINETTE      NOT AVBL
$$

WIZ017-030-035>037-045-280000-
CENTRAL WISCONSIN

CITY           SKY/WX    TMP DP  RH WIND       PRES   REMARKS
MEDFORD        NOT AVBL
WAUSAU         PTSUNNY   68  49  50 W8        29.83S
MOSINEE        PTSUNNY   68  50  52 NW7       29.86R
MARSHFIELD     CLOUDY    67  49  52 W5        29.86R
WISC RAPIDS    MOSUNNY   73  50  44 NW5       29.87R
STEVENS POINT  NOT AVBL
WAUPACA        NOT AVBL
SHAWANO        CLOUDY    76  49  37 W8        29.80F
CLINTONVILLE   MOSUNNY   73  48  40 NW8       29.81S
WAUTOMA        PTSUNNY   75  52  44 W7        29.84R
$$

WIZ038-039-048-051-280000-
FOX VALLEY

CITY           SKY/WX    TMP DP  RH WIND       PRES   REMARKS
NWS GREEN BAY  PTSUNNY   75  59  57 S7        29.80F
APPLETON       PTSUNNY   73  54  49 SW9       29.81F
OSHKOSH        CLOUDY    75  57  53 SW7       29.86R
FOND DU LAC    MOSUNNY   76  54  46 SW9       29.85R
$$

WIZ022-050-052-280000-
EAST CENTRAL WISCONSIN

CITY           SKY/WX    TMP DP  RH WIND       PRES   REMARKS
EPHRAIM        NOT AVBL
WASHINGTON ISL NOT AVBL
STURGEON BAY   PTSUNNY   69  53  56 S10       29.82F
MANITOWOC      NOT AVBL
SHEBOYGAN      CLOUDY    67  55  65 S9        29.86R
$$

LMZ563-521-522-541>543-280000-
LAKESHORE

STATION/POSITION TIME  TEMP    WIND        PRES    VSBY  WAVE
                       AIR SEA DIR/SP/G                  HT/PER
                 (UTC) (F)     (DEG/KT/KT) (MB)    (MI)  (FT/S)
SHEBOYGAN LKSHOR 2200   56     180/ 13/ 14 1010.8F
KEWAUNEE LKSHORE 2230   56     180/ 11/ 14 1010.2F
NORTHPORT PIER   2240   62     150/  9/ 12 1009.5F
N MID LAKE BUOY  2150   49 43  190/ 10/ 10 1011.9F         0
CHAMBERS ISLAND  2240   70     150/  3/ 10 1008.8F
MENOMINEE LKSHOR 2230          140/ 12/ 13 1008.4F
$$



USA.gov is the U.S. government's official web portal to all federal, state and local government web resources and services.